Time,TemperatureF,DewpointF,PressureIn,WindDirection,WindDirectionDegrees,WindSpeedMPH,WindSpeedGustMPH,Humidity,HourlyPrecipIn,Conditions,Clouds,dailyrainin,SoftwareType,DateUTC
2013-09-16 00:00:00,57.2,51.4,30.06,West,266,0.0,0.0,81,0.00,,---,0.00,VWS V14.01,2013-09-16 04:00:00,
2013-09-16 00:05:00,57.2,51.4,30.06,West,266,0.0,1.0,81,0.00,,---,0.00,VWS V14.01,2013-09-16 04:05:00,
2013-09-16 00:10:00,57.2,51.4,30.06,West,266,1.0,1.0,81,0.00,,---,0.00,VWS V14.01,2013-09-16 04:10:00,
2013-09-16 00:15:00,57.1,51.3,30.06,South,175,0.0,1.0,81,0.00,,---,0.00,VWS V14.01,2013-09-16 04:15:00,
2013-09-16 00:20:00,57.1,51.7,30.06,South,175,0.0,0.0,82,0.00,,---,0.00,VWS V14.01,2013-09-16 04:20:00,
2013-09-16 00:25:00,56.9,51.5,30.06,South,175,0.0,0.0,82,0.00,,---,0.00,VWS V14.01,2013-09-16 04:25:00,
2013-09-16 00:30:00,56.8,51.4,30.06,South,175,0.0,0.0,82,0.00,,---,0.00,VWS V14.01,2013-09-16 04:30:00,
2013-09-16 00:35:00,56.7,51.3,30.06,South,175,0.0,1.0,82,0.00,,---,0.00,VWS V14.01,2013-09-16 04:35:00,
2013-09-16 00:40:00,56.6,51.5,30.06,South,175,0.0,0.0,83,0.00,,---,0.00,VWS V14.01,2013-09-16 04:40:00,
2013-09-16 00:45:00,56.6,51.5,30.06,South,175,0.0,1.0,83,0.00,,---,0.00,VWS V14.01,2013-09-16 04:45:00,
2013-09-16 00:50:00,56.5,51.4,30.06,South,175,0.0,0.0,83,0.00,,---,0.00,VWS V14.01,2013-09-16 04:50:00,
2013-09-16 00:55:00,56.5,51.4,30.06,South,175,0.0,0.0,83,0.00,,---,0.00,VWS V14.01,2013-09-16 04:55:00,
2013-09-16 01:00:00,56.4,51.6,30.06,South,175,0.0,1.0,84,0.00,,---,0.00,VWS V14.01,2013-09-16 05:00:00,
2013-09-16 01:05:00,56.4,51.6,30.06,South,175,0.0,0.0,84,0.00,,---,0.00,VWS V14.01,2013-09-16 05:05:00,
2013-09-16 01:10:00,56.4,51.3,30.05,South,175,0.0,2.0,83,0.00,,---,0.00,VWS V14.01,2013-09-16 05:10:00,
2013-09-16 01:15:00,56.4,51.6,30.05,South,175,0.0,0.0,84,0.00,,---,0.00,VWS V14.01,2013-09-16 05:15:00,
2013-09-16 01:20:00,56.2,51.4,30.05,South,175,0.0,0.0,84,0.00,,---,0.00,VWS V14.01,2013-09-16 05:20:00,
2013-09-16 01:25:00,56.1,51.7,30.06,South,175,0.0,1.0,85,0.00,,---,0.00,VWS V14.01,2013-09-16 05:25:00,
2013-09-16 01:30:00,56.1,51.3,30.05,South,175,0.0,0.0,84,0.00,,---,0.00,VWS V14.01,2013-09-16 05:30:00,
2013-09-16 01:35:00,56.1,51.7,30.05,South,175,0.0,0.0,85,0.00,,---,0.00,VWS V14.01,2013-09-16 05:35:00,
2013-09-16 01:40:00,56.0,51.6,30.05,South,175,0.0,1.0,85,0.00,,---,0.00,VWS V14.01,2013-09-16 05:40:00,
2013-09-16 01:45:00,55.9,51.5,30.05,South,175,0.0,0.0,85,0.00,,---,0.00,VWS V14.01,2013-09-16 05:45:00,
2013-09-16 01:50:00,55.8,51.4,30.04,South,175,0.0,0.0,85,0.00,,---,0.00,VWS V14.01,2013-09-16 05:50:00,
2013-09-16 01:55:00,55.8,51.7,30.04,South,175,0.0,0.0,86,0.00,,---,0.00,VWS V14.01,2013-09-16 05:55:00,
2013-09-16 02:00:00,55.7,51.3,30.04,South,175,0.0,0.0,85,0.00,,---,0.00,VWS V14.01,2013-09-16 06:00:00,
2013-09-16 02:05:00,55.7,51.3,30.04,South,175,0.0,0.0,85,0.00,,---,0.00,VWS V14.01,2013-09-16 06:05:00,
2013-09-16 02:10:00,55.6,51.2,30.04,South,175,0.0,0.0,85,0.00,,---,0.00,VWS V14.01,2013-09-16 06:10:00,
2013-09-16 02:15:00,55.5,51.1,30.04,South,175,0.0,0.0,85,0.00,,---,0.00,VWS V14.01,2013-09-16 06:15:00,
2013-09-16 02:20:00,55.4,51.3,30.04,South,175,0.0,0.0,86,0.00,,---,0.00,VWS V14.01,2013-09-16 06:20:00,
2013-09-16 02:25:00,55.3,51.2,30.04,South,175,0.0,0.0,86,0.00,,---,0.00,VWS V14.01,2013-09-16 06:25:00,
2013-09-16 02:30:00,55.3,51.5,30.04,South,175,0.0,0.0,87,0.00,,---,0.00,VWS V14.01,2013-09-16 06:30:00,
2013-09-16 02:35:00,55.1,51.3,30.03,South,175,0.0,0.0,87,0.00,,---,0.00,VWS V14.01,2013-09-16 06:35:00,
2013-09-16 02:40:00,55.1,51.3,30.03,South,175,0.0,0.0,87,0.00,,---,0.00,VWS V14.01,2013-09-16 06:40:00,
2013-09-16 02:45:00,55.0,51.5,30.03,South,175,0.0,0.0,88,0.00,,---,0.00,VWS V14.01,2013-09-16 06:45:00,
2013-09-16 02:50:00,55.0,51.5,30.03,South,175,0.0,0.0,88,0.00,,---,0.00,VWS V14.01,2013-09-16 06:50:00,
2013-09-16 02:55:00,55.0,51.2,30.03,South,175,0.0,0.0,87,0.00,,---,0.00,VWS V14.01,2013-09-16 06:55:00,
2013-09-16 03:00:00,55.0,51.2,30.03,South,175,0.0,0.0,87,0.00,,---,0.00,VWS V14.01,2013-09-16 07:00:00,
2013-09-16 03:05:00,55.0,50.9,30.03,South,175,0.0,0.0,86,0.00,,---,0.00,VWS V14.01,2013-09-16 07:05:00,
2013-09-16 03:10:00,55.1,51.0,30.03,South,175,0.0,0.0,86,0.00,,---,0.00,VWS V14.01,2013-09-16 07:10:00,
2013-09-16 03:15:00,55.1,51.0,30.04,South,175,0.0,0.0,86,0.00,,---,0.00,VWS V14.01,2013-09-16 07:15:00,
2013-09-16 03:20:00,55.2,51.4,30.03,South,175,0.0,0.0,87,0.00,,---,0.00,VWS V14.01,2013-09-16 07:20:00,
2013-09-16 03:25:00,55.3,51.2,30.03,South,175,0.0,0.0,86,0.00,,---,0.00,VWS V14.01,2013-09-16 07:25:00,
2013-09-16 03:30:00,55.3,51.2,30.04,South,175,0.0,0.0,86,0.00,,---,0.00,VWS V14.01,2013-09-16 07:30:00,
2013-09-16 03:35:00,55.3,51.2,30.03,South,175,0.0,0.0,86,0.00,,---,0.00,VWS V14.01,2013-09-16 07:35:00,
2013-09-16 03:40:00,55.3,51.2,30.03,South,175,0.0,0.0,86,0.00,,---,0.00,VWS V14.01,2013-09-16 07:40:00,
2013-09-16 03:45:00,55.3,51.2,30.03,South,175,0.0,0.0,86,0.00,,---,0.00,VWS V14.01,2013-09-16 07:45:00,
2013-09-16 03:50:00,55.3,51.2,30.03,South,175,0.0,0.0,86,0.00,,---,0.00,VWS V14.01,2013-09-16 07:50:00,
2013-09-16 03:55:00,55.2,51.1,30.03,South,175,0.0,0.0,86,0.00,,---,0.00,VWS V14.01,2013-09-16 07:55:00,
2013-09-16 04:00:00,55.1,51.0,30.03,South,175,0.0,0.0,86,0.00,,---,0.00,VWS V14.01,2013-09-16 08:00:00,
2013-09-16 04:05:00,55.1,51.3,30.03,South,175,0.0,0.0,87,0.00,,---,0.00,VWS V14.01,2013-09-16 08:05:00,
2013-09-16 04:10:00,55.0,51.2,30.03,South,175,0.0,0.0,87,0.00,,---,0.00,VWS V14.01,2013-09-16 08:10:00,
2013-09-16 04:15:00,54.9,51.4,30.03,South,175,0.0,0.0,88,0.00,,---,0.00,VWS V14.01,2013-09-16 08:15:00,
2013-09-16 04:20:00,54.9,51.1,30.03,South,175,0.0,0.0,87,0.00,,---,0.00,VWS V14.01,2013-09-16 08:20:00,
2013-09-16 04:25:00,55.0,51.5,30.03,South,175,0.0,0.0,88,0.00,,---,0.00,VWS V14.01,2013-09-16 08:25:00,
2013-09-16 04:30:00,54.9,51.1,30.03,South,175,0.0,0.0,87,0.00,,---,0.00,VWS V14.01,2013-09-16 08:30:00,
2013-09-16 04:35:00,54.9,51.4,30.03,South,175,0.0,0.0,88,0.00,,---,0.00,VWS V14.01,2013-09-16 08:35:00,
2013-09-16 04:40:00,54.9,51.4,30.03,South,175,0.0,0.0,88,0.00,,---,0.00,VWS V14.01,2013-09-16 08:40:00,
2013-09-16 04:45:00,54.8,51.3,30.03,South,175,0.0,0.0,88,0.00,,---,0.00,VWS V14.01,2013-09-16 08:45:00,
2013-09-16 04:50:00,54.8,51.3,30.03,South,175,0.0,0.0,88,0.00,,---,0.00,VWS V14.01,2013-09-16 08:50:00,
2013-09-16 04:55:00,54.7,51.5,30.03,South,175,0.0,0.0,89,0.00,,---,0.00,VWS V14.01,2013-09-16 08:55:00,
2013-09-16 05:00:00,54.6,51.4,30.02,South,175,0.0,0.0,89,0.00,,---,0.00,VWS V14.01,2013-09-16 09:00:00,
2013-09-16 05:05:00,54.5,51.3,30.03,South,175,0.0,0.0,89,0.00,,---,0.00,VWS V14.01,2013-09-16 09:05:00,
2013-09-16 05:10:00,54.4,51.2,30.03,South,175,0.0,0.0,89,0.00,,---,0.00,VWS V14.01,2013-09-16 09:10:00,
2013-09-16 05:15:00,54.4,51.2,30.02,South,175,0.0,0.0,89,0.00,,---,0.00,VWS V14.01,2013-09-16 09:15:00,
2013-09-16 05:20:00,54.3,51.1,30.03,South,175,0.0,0.0,89,0.00,,---,0.00,VWS V14.01,2013-09-16 09:20:00,
2013-09-16 05:25:00,54.4,51.2,30.03,South,175,0.0,1.0,89,0.00,,---,0.00,VWS V14.01,2013-09-16 09:25:00,
2013-09-16 05:30:00,54.3,51.1,30.03,South,175,0.0,1.0,89,0.00,,---,0.00,VWS V14.01,2013-09-16 09:30:00,
2013-09-16 05:35:00,54.3,51.1,30.04,South,175,0.0,0.0,89,0.00,,---,0.00,VWS V14.01,2013-09-16 09:35:00,
2013-09-16 05:40:00,54.3,51.1,30.03,South,175,0.0,0.0,89,0.00,,---,0.00,VWS V14.01,2013-09-16 09:40:00,
2013-09-16 05:45:00,54.2,51.0,30.03,South,175,0.0,0.0,89,0.00,,---,0.00,VWS V14.01,2013-09-16 09:45:00,
2013-09-16 05:50:00,54.1,50.9,30.03,South,175,0.0,0.0,89,0.00,,---,0.00,VWS V14.01,2013-09-16 09:50:00,
2013-09-16 05:55:00,54.1,50.9,30.04,South,175,0.0,0.0,89,0.00,,---,0.00,VWS V14.01,2013-09-16 09:55:00,
2013-09-16 06:00:00,54.1,50.9,30.03,South,175,0.0,0.0,89,0.00,,---,0.00,VWS V14.01,2013-09-16 10:00:00,
2013-09-16 06:05:00,54.0,51.1,30.04,South,175,0.0,0.0,90,0.00,,---,0.00,VWS V14.01,2013-09-16 10:05:00,
2013-09-16 06:10:00,53.9,51.0,30.05,South,175,0.0,0.0,90,0.00,,---,0.00,VWS V14.01,2013-09-16 10:10:00,
2013-09-16 06:15:00,53.9,51.0,30.05,South,175,0.0,0.0,90,0.00,,---,0.00,VWS V14.01,2013-09-16 10:15:00,
2013-09-16 06:20:00,54.0,51.4,30.05,South,175,0.0,0.0,91,0.00,,---,0.00,VWS V14.01,2013-09-16 10:20:00,
2013-09-16 06:25:00,54.1,51.2,30.05,South,175,0.0,0.0,90,0.00,,---,0.00,VWS V14.01,2013-09-16 10:25:00,
2013-09-16 06:30:00,54.1,51.2,30.04,South,175,0.0,1.0,90,0.00,,---,0.00,VWS V14.01,2013-09-16 10:30:00,
2013-09-16 06:35:00,54.2,51.3,30.03,South,175,0.0,0.0,90,0.00,,---,0.00,VWS V14.01,2013-09-16 10:35:00,
2013-09-16 06:40:00,54.2,51.3,30.04,South,175,0.0,0.0,90,0.00,,---,0.00,VWS V14.01,2013-09-16 10:40:00,
2013-09-16 06:45:00,54.3,51.4,30.05,South,175,0.0,0.0,90,0.00,,---,0.00,VWS V14.01,2013-09-16 10:45:00,
2013-09-16 06:50:00,54.4,51.5,30.05,South,175,0.0,0.0,90,0.00,,---,0.00,VWS V14.01,2013-09-16 10:50:00,
2013-09-16 06:55:00,54.4,51.5,30.04,South,175,0.0,0.0,90,0.00,,---,0.00,VWS V14.01,2013-09-16 10:55:00,
2013-09-16 07:00:00,54.5,51.6,30.04,South,175,0.0,0.0,90,0.00,,---,0.00,VWS V14.01,2013-09-16 11:00:00,
2013-09-16 07:05:00,54.5,51.6,30.05,South,175,0.0,0.0,90,0.00,,---,0.00,VWS V14.01,2013-09-16 11:05:00,
2013-09-16 07:10:00,54.6,51.7,30.05,South,175,0.0,0.0,90,0.00,,---,0.00,VWS V14.01,2013-09-16 11:10:00,
2013-09-16 07:15:00,54.8,51.9,30.05,South,175,0.0,0.0,90,0.00,,---,0.00,VWS V14.01,2013-09-16 11:15:00,
2013-09-16 07:20:00,54.9,52.0,30.06,South,175,0.0,0.0,90,0.00,,---,0.00,VWS V14.01,2013-09-16 11:20:00,
2013-09-16 07:25:00,55.1,52.2,30.06,South,175,0.0,0.0,90,0.00,,---,0.00,VWS V14.01,2013-09-16 11:25:00,
2013-09-16 07:30:00,55.3,52.1,30.06,South,175,0.0,1.0,89,0.00,,---,0.00,VWS V14.01,2013-09-16 11:30:00,
2013-09-16 07:35:00,55.6,52.1,30.06,South,175,0.0,1.0,88,0.00,,---,0.00,VWS V14.01,2013-09-16 11:35:00,
2013-09-16 07:40:00,55.9,51.8,30.06,ENE,71,0.0,3.0,86,0.00,,---,0.00,VWS V14.01,2013-09-16 11:40:00,
2013-09-16 07:45:00,56.1,52.0,30.06,ENE,71,0.0,1.0,86,0.00,,---,0.00,VWS V14.01,2013-09-16 11:45:00,
2013-09-16 07:50:00,56.4,52.3,30.07,ENE,71,0.0,1.0,86,0.00,,---,0.00,VWS V14.01,2013-09-16 11:50:00,
2013-09-16 07:55:00,56.6,52.2,30.06,ENE,71,0.0,1.0,85,0.00,,---,0.00,VWS V14.01,2013-09-16 11:55:00,
2013-09-16 08:00:00,56.8,52.3,30.06,ENE,71,0.0,2.0,85,0.00,,---,0.00,VWS V14.01,2013-09-16 12:00:00,
2013-09-16 08:05:00,56.9,52.4,30.06,WSW,244,0.0,4.0,85,0.00,,---,0.00,VWS V14.01,2013-09-16 12:05:00,
2013-09-16 08:10:00,57.1,52.6,30.06,WSW,244,0.0,1.0,85,0.00,,---,0.00,VWS V14.01,2013-09-16 12:10:00,
2013-09-16 08:15:00,57.2,52.4,30.06,NNE,17,0.0,3.0,84,0.00,,---,0.00,VWS V14.01,2013-09-16 12:15:00,
2013-09-16 08:20:00,57.3,52.5,30.07,NW,325,0.0,2.0,84,0.00,,---,0.00,VWS V14.01,2013-09-16 12:20:00,
2013-09-16 08:25:00,57.4,52.6,30.07,WNW,296,0.0,1.0,84,0.00,,---,0.00,VWS V14.01,2013-09-16 12:25:00,
2013-09-16 08:30:00,57.5,52.7,30.07,WSW,241,0.0,3.0,84,0.00,,---,0.00,VWS V14.01,2013-09-16 12:30:00,
2013-09-16 08:35:00,57.6,52.5,30.07,WSW,241,0.0,1.0,83,0.00,,---,0.00,VWS V14.01,2013-09-16 12:35:00,
2013-09-16 08:40:00,57.7,52.6,30.07,SW,224,0.0,3.0,83,0.00,,---,0.00,VWS V14.01,2013-09-16 12:40:00,
2013-09-16 08:45:00,57.8,52.7,30.07,SW,224,0.0,1.0,83,0.00,,---,0.00,VWS V14.01,2013-09-16 12:45:00,
2013-09-16 08:50:00,57.8,52.7,30.07,SW,225,0.0,2.0,83,0.00,,---,0.00,VWS V14.01,2013-09-16 12:50:00,
2013-09-16 08:55:00,57.9,52.8,30.07,SW,225,0.0,1.0,83,0.00,,---,0.00,VWS V14.01,2013-09-16 12:55:00,
2013-09-16 09:00:00,57.9,53.1,30.07,SW,225,0.0,0.0,84,0.00,,---,0.00,VWS V14.01,2013-09-16 13:00:00,
2013-09-16 09:05:00,58.0,52.9,30.08,SW,225,0.0,0.0,83,0.00,,---,0.00,VWS V14.01,2013-09-16 13:05:00,
2013-09-16 09:10:00,58.1,53.3,30.08,SW,225,0.0,0.0,84,0.00,,---,0.00,VWS V14.01,2013-09-16 13:10:00,
2013-09-16 09:15:00,58.1,53.3,30.08,SW,225,0.0,0.0,84,0.00,,---,0.00,VWS V14.01,2013-09-16 13:15:00,
2013-09-16 09:20:00,58.1,53.3,30.08,SW,225,0.0,0.0,84,0.00,,---,0.00,VWS V14.01,2013-09-16 13:20:00,
2013-09-16 09:25:00,58.1,53.3,30.07,SW,225,0.0,1.0,84,0.00,,---,0.00,VWS V14.01,2013-09-16 13:25:00,
2013-09-16 09:30:00,58.2,53.4,30.07,SW,225,0.0,0.0,84,0.00,,---,0.00,VWS V14.01,2013-09-16 13:30:00,
2013-09-16 09:35:00,58.3,53.5,30.07,SW,225,0.0,0.0,84,0.00,,---,0.00,VWS V14.01,2013-09-16 13:35:00,
2013-09-16 09:40:00,58.4,53.6,30.07,SW,225,0.0,0.0,84,0.00,,---,0.00,VWS V14.01,2013-09-16 13:40:00,
2013-09-16 09:45:00,58.5,54.0,30.07,SW,225,0.0,1.0,85,0.00,,---,0.00,VWS V14.01,2013-09-16 13:45:00,
2013-09-16 09:50:00,58.6,53.5,30.07,SW,225,0.0,0.0,83,0.00,,---,0.00,VWS V14.01,2013-09-16 13:50:00,
2013-09-16 09:55:00,58.6,53.5,30.07,SW,225,0.0,1.0,83,0.00,,---,0.00,VWS V14.01,2013-09-16 13:55:00,
2013-09-16 10:00:00,58.6,53.1,30.07,NE,49,0.0,3.0,82,0.00,,---,0.00,VWS V14.01,2013-09-16 14:00:00,
2013-09-16 10:05:00,58.6,53.1,30.07,North,360,0.0,3.0,82,0.00,,---,0.00,VWS V14.01,2013-09-16 14:05:00,
2013-09-16 10:10:00,58.6,53.1,30.06,NW,308,0.0,2.0,82,0.00,,---,0.00,VWS V14.01,2013-09-16 14:10:00,
2013-09-16 10:15:00,58.6,53.5,30.06,North,355,0.0,2.0,83,0.00,,---,0.00,VWS V14.01,2013-09-16 14:15:00,
2013-09-16 10:20:00,58.6,53.8,30.06,North,355,0.0,0.0,84,0.00,,---,0.00,VWS V14.01,2013-09-16 14:20:00,
2013-09-16 10:25:00,58.5,53.7,30.07,North,355,0.0,0.0,84,0.00,,---,0.00,VWS V14.01,2013-09-16 14:25:00,
2013-09-16 10:30:00,58.4,53.6,30.07,North,355,0.0,1.0,84,0.00,,---,0.00,VWS V14.01,2013-09-16 14:30:00,
2013-09-16 10:35:00,58.3,53.8,30.07,North,355,0.0,0.0,85,0.00,,---,0.00,VWS V14.01,2013-09-16 14:35:00,
2013-09-16 10:40:00,58.1,53.6,30.07,North,355,0.0,1.0,85,0.00,,---,0.00,VWS V14.01,2013-09-16 14:40:00,
2013-09-16 10:45:00,58.0,53.8,30.06,North,355,0.0,1.0,86,0.00,,---,0.00,VWS V14.01,2013-09-16 14:45:00,
2013-09-16 10:50:00,57.9,53.7,30.07,North,355,0.0,1.0,86,0.00,,---,0.00,VWS V14.01,2013-09-16 14:50:00,
2013-09-16 10:55:00,57.9,53.7,30.07,North,358,1.0,1.0,86,0.00,,---,0.00,VWS V14.01,2013-09-16 14:55:00,
2013-09-16 11:00:00,57.8,54.0,30.07,North,358,0.0,1.0,87,0.00,,---,0.00,VWS V14.01,2013-09-16 15:00:00,
2013-09-16 11:05:00,57.9,54.1,30.06,North,360,0.0,2.0,87,0.00,,---,0.00,VWS V14.01,2013-09-16 15:05:00,
2013-09-16 11:10:00,58.0,53.8,30.07,North,360,0.0,0.0,86,0.00,,---,0.00,VWS V14.01,2013-09-16 15:10:00,
2013-09-16 11:15:00,58.0,53.8,30.07,North,360,0.0,1.0,86,0.00,,---,0.00,VWS V14.01,2013-09-16 15:15:00,
2013-09-16 11:20:00,58.1,54.3,30.06,North,360,0.0,1.0,87,0.00,,---,0.00,VWS V14.01,2013-09-16 15:20:00,
2013-09-16 11:25:00,58.1,53.9,30.06,South,172,0.0,2.0,86,0.00,,---,0.00,VWS V14.01,2013-09-16 15:25:00,
2013-09-16 11:30:00,58.1,53.9,30.06,South,173,0.0,1.0,86,0.00,,---,0.00,VWS V14.01,2013-09-16 15:30:00,
2013-09-16 11:35:00,58.2,54.3,30.06,East,80,1.0,1.0,87,0.00,,---,0.00,VWS V14.01,2013-09-16 15:35:00,
2013-09-16 11:40:00,58.4,54.2,30.07,East,80,0.0,1.0,86,0.00,,---,0.00,VWS V14.01,2013-09-16 15:40:00,
2013-09-16 11:45:00,58.4,53.9,30.07,WSW,243,0.0,2.0,85,0.00,,---,0.00,VWS V14.01,2013-09-16 15:45:00,
2013-09-16 11:50:00,58.4,54.2,30.07,SSW,204,2.0,2.0,86,0.00,,---,0.00,VWS V14.01,2013-09-16 15:50:00,
2013-09-16 11:55:00,58.5,54.3,30.07,SSW,207,0.0,2.0,86,0.00,,---,0.00,VWS V14.01,2013-09-16 15:55:00,
2013-09-16 12:00:00,58.5,54.0,30.07,SSW,207,1.0,2.0,85,0.00,,---,0.00,VWS V14.01,2013-09-16 16:00:00,
2013-09-16 12:05:00,58.5,54.0,30.06,SSW,207,0.0,1.0,85,0.00,,---,0.00,VWS V14.01,2013-09-16 16:05:00,
2013-09-16 12:10:00,58.5,54.0,30.06,SSW,207,0.0,1.0,85,0.00,,---,0.00,VWS V14.01,2013-09-16 16:10:00,
2013-09-16 12:15:00,58.6,54.4,30.06,SSW,206,0.0,2.0,86,0.00,,---,0.00,VWS V14.01,2013-09-16 16:15:00,
2013-09-16 12:20:00,58.7,54.2,30.06,SSW,206,0.0,1.0,85,0.00,,---,0.00,VWS V14.01,2013-09-16 16:20:00,
2013-09-16 12:25:00,58.9,54.4,30.06,North,8,1.0,3.0,85,0.00,,---,0.00,VWS V14.01,2013-09-16 16:25:00,
2013-09-16 12:30:00,59.0,54.5,30.06,NE,56,1.0,5.0,85,0.00,,---,0.00,VWS V14.01,2013-09-16 16:30:00,
2013-09-16 12:35:00,59.3,54.8,30.06,NNE,25,0.0,2.0,85,0.00,,---,0.00,VWS V14.01,2013-09-16 16:35:00,
2013-09-16 12:40:00,59.5,54.7,30.06,West,270,0.0,6.0,84,0.00,,---,0.00,VWS V14.01,2013-09-16 16:40:00,
2013-09-16 12:45:00,59.8,54.6,30.06,SW,220,0.0,2.0,83,0.00,,---,0.00,VWS V14.01,2013-09-16 16:45:00,
2013-09-16 12:50:00,60.3,55.5,30.05,SW,221,0.0,1.0,84,0.00,,---,0.00,VWS V14.01,2013-09-16 16:50:00,
2013-09-16 12:55:00,60.9,55.4,30.05,West,276,0.0,4.0,82,0.00,,---,0.00,VWS V14.01,2013-09-16 16:55:00,
2013-09-16 13:00:00,61.6,55.0,30.05,WNW,298,1.0,3.0,79,0.00,,---,0.00,VWS V14.01,2013-09-16 17:00:00,
2013-09-16 13:05:00,62.4,56.2,30.04,North,349,2.0,2.0,80,0.00,,---,0.00,VWS V14.01,2013-09-16 17:05:00,
2013-09-16 13:10:00,63.0,54.6,30.04,West,281,3.0,8.0,74,0.00,,---,0.00,VWS V14.01,2013-09-16 17:10:00,
2013-09-16 13:15:00,63.4,55.0,30.05,NE,44,0.0,6.0,74,0.00,,---,0.00,VWS V14.01,2013-09-16 17:15:00,
2013-09-16 13:20:00,64.0,54.0,30.04,WNW,287,0.0,7.0,70,0.00,,---,0.00,VWS V14.01,2013-09-16 17:20:00,
2013-09-16 13:25:00,64.5,55.7,30.04,WNW,291,1.0,6.0,73,0.00,,---,0.00,VWS V14.01,2013-09-16 17:25:00,
2013-09-16 13:30:00,65.2,56.0,30.04,NNE,30,0.0,5.0,72,0.00,,---,0.00,VWS V14.01,2013-09-16 17:30:00,
2013-09-16 13:35:00,65.8,55.8,30.04,SW,236,3.0,5.0,70,0.00,,---,0.00,VWS V14.01,2013-09-16 17:35:00,
2013-09-16 13:40:00,66.0,56.3,30.04,NE,40,3.0,6.0,71,0.00,,---,0.00,VWS V14.01,2013-09-16 17:40:00,
2013-09-16 13:45:00,66.2,55.3,30.03,ESE,118,0.0,4.0,68,0.00,,---,0.00,VWS V14.01,2013-09-16 17:45:00,
2013-09-16 13:50:00,66.4,55.5,30.03,WNW,292,0.0,11.0,68,0.00,,---,0.00,VWS V14.01,2013-09-16 17:50:00,
2013-09-16 13:55:00,65.9,55.0,30.03,WSW,243,0.0,10.0,68,0.00,,---,0.00,VWS V14.01,2013-09-16 17:55:00,
2013-09-16 14:00:00,65.7,55.7,30.04,NE,40,1.0,6.0,70,0.00,,---,0.00,VWS V14.01,2013-09-16 18:00:00,
2013-09-16 14:05:00,65.5,55.1,30.04,WNW,289,0.0,4.0,69,0.00,,---,0.00,VWS V14.01,2013-09-16 18:05:00,
2013-09-16 14:10:00,65.3,55.3,30.04,NE,40,1.0,5.0,70,0.00,,---,0.00,VWS V14.01,2013-09-16 18:10:00,
2013-09-16 14:15:00,65.0,55.0,30.04,WNW,289,0.0,6.0,70,0.00,,---,0.00,VWS V14.01,2013-09-16 18:15:00,
2013-09-16 14:20:00,64.8,55.6,30.04,NNE,15,1.0,5.0,72,0.00,,---,0.00,VWS V14.01,2013-09-16 18:20:00,
2013-09-16 14:25:00,64.9,55.3,30.04,West,260,1.0,5.0,71,0.00,,---,0.00,VWS V14.01,2013-09-16 18:25:00,
2013-09-16 14:30:00,65.4,55.0,30.04,ESE,105,0.0,4.0,69,0.00,,---,0.00,VWS V14.01,2013-09-16 18:30:00,
2013-09-16 14:35:00,65.9,54.2,30.04,NNW,336,1.0,6.0,66,0.00,,---,0.00,VWS V14.01,2013-09-16 18:35:00,
2013-09-16 14:40:00,66.1,54.4,30.04,SE,137,1.0,6.0,66,0.00,,---,0.00,VWS V14.01,2013-09-16 18:40:00,
2013-09-16 14:45:00,66.9,54.8,30.04,West,262,4.0,5.0,65,0.00,,---,0.00,VWS V14.01,2013-09-16 18:45:00,
2013-09-16 14:50:00,67.3,55.2,30.04,NNW,339,0.0,8.0,65,0.00,,---,0.00,VWS V14.01,2013-09-16 18:50:00,
2013-09-16 14:55:00,67.4,54.4,30.04,SSW,213,0.0,4.0,63,0.00,,---,0.00,VWS V14.01,2013-09-16 18:55:00,
2013-09-16 15:00:00,67.9,55.3,30.04,West,273,4.0,5.0,64,0.00,,---,0.00,VWS V14.01,2013-09-16 19:00:00,
2013-09-16 15:05:00,68.1,54.2,30.03,ESE,122,1.0,5.0,61,0.00,,---,0.00,VWS V14.01,2013-09-16 19:05:00,
2013-09-16 15:10:00,67.9,54.0,30.03,West,265,1.0,4.0,61,0.00,,---,0.00,VWS V14.01,2013-09-16 19:10:00,
2013-09-16 15:15:00,68.1,54.6,30.03,WNW,303,5.0,6.0,62,0.00,,---,0.00,VWS V14.01,2013-09-16 19:15:00,
2013-09-16 15:20:00,68.2,53.8,30.03,NE,40,0.0,5.0,60,0.00,,---,0.00,VWS V14.01,2013-09-16 19:20:00,
2013-09-16 15:25:00,67.7,53.8,30.03,NNE,25,2.0,5.0,61,0.00,,---,0.00,VWS V14.01,2013-09-16 19:25:00,
2013-09-16 15:30:00,67.2,53.3,30.03,NE,40,0.0,6.0,61,0.00,,---,0.00,VWS V14.01,2013-09-16 19:30:00,
2013-09-16 15:35:00,66.7,53.3,30.03,NW,319,1.0,5.0,62,0.00,,---,0.00,VWS V14.01,2013-09-16 19:35:00,
2013-09-16 15:40:00,66.3,52.9,30.04,SSE,159,1.0,4.0,62,0.00,,---,0.00,VWS V14.01,2013-09-16 19:40:00,
2013-09-16 15:45:00,66.1,54.0,30.04,NNE,19,1.0,5.0,65,0.00,,---,0.00,VWS V14.01,2013-09-16 19:45:00,
2013-09-16 15:50:00,65.9,53.4,30.04,East,89,0.0,3.0,64,0.00,,---,0.00,VWS V14.01,2013-09-16 19:50:00,
2013-09-16 15:55:00,65.8,53.7,30.04,ESE,121,0.0,7.0,65,0.00,,---,0.00,VWS V14.01,2013-09-16 19:55:00,
2013-09-16 16:00:00,65.9,54.7,30.04,South,179,1.0,3.0,67,0.00,,---,0.00,VWS V14.01,2013-09-16 20:00:00,
2013-09-16 16:05:00,65.9,53.8,30.04,NW,317,1.0,6.0,65,0.00,,---,0.00,VWS V14.01,2013-09-16 20:05:00,
2013-09-16 16:10:00,65.7,54.0,30.04,SSE,161,0.0,5.0,66,0.00,,---,0.00,VWS V14.01,2013-09-16 20:10:00,
2013-09-16 16:15:00,65.6,53.5,30.04,South,172,0.0,5.0,65,0.00,,---,0.00,VWS V14.01,2013-09-16 20:15:00,
2013-09-16 16:20:00,65.3,54.1,30.04,NE,56,3.0,6.0,67,0.00,,---,0.00,VWS V14.01,2013-09-16 20:20:00,
2013-09-16 16:25:00,65.0,53.4,30.05,SW,231,0.0,6.0,66,0.00,,---,0.00,VWS V14.01,2013-09-16 20:25:00,
2013-09-16 16:30:00,64.8,53.2,30.05,NNE,12,0.0,5.0,66,0.00,,---,0.00,VWS V14.01,2013-09-16 20:30:00,
2013-09-16 16:35:00,65.1,54.3,30.05,North,360,2.0,4.0,68,0.00,,---,0.00,VWS V14.01,2013-09-16 20:35:00,
2013-09-16 16:40:00,65.7,54.0,30.05,NNE,14,1.0,11.0,66,0.00,,---,0.00,VWS V14.01,2013-09-16 20:40:00,
2013-09-16 16:45:00,66.1,54.4,30.05,WNW,292,0.0,7.0,66,0.00,,---,0.00,VWS V14.01,2013-09-16 20:45:00,
2013-09-16 16:50:00,66.3,55.0,30.05,North,350,0.0,4.0,67,0.00,,---,0.00,VWS V14.01,2013-09-16 20:50:00,
2013-09-16 16:55:00,66.1,54.8,30.05,North,10,3.0,5.0,67,0.00,,---,0.00,VWS V14.01,2013-09-16 20:55:00,
2013-09-16 17:00:00,65.7,54.0,30.05,West,273,1.0,5.0,66,0.00,,---,0.00,VWS V14.01,2013-09-16 21:00:00,
2013-09-16 17:05:00,65.1,53.5,30.05,East,95,1.0,5.0,66,0.00,,---,0.00,VWS V14.01,2013-09-16 21:05:00,
2013-09-16 17:10:00,64.6,53.4,30.05,NW,308,3.0,3.0,67,0.00,,---,0.00,VWS V14.01,2013-09-16 21:10:00,
2013-09-16 17:15:00,64.3,53.5,30.06,SSE,159,0.0,10.0,68,0.00,,---,0.00,VWS V14.01,2013-09-16 21:15:00,
2013-09-16 17:20:00,64.1,53.3,30.06,ENE,77,1.0,6.0,68,0.00,,---,0.00,VWS V14.01,2013-09-16 21:20:00,
2013-09-16 17:25:00,63.9,53.1,30.06,ENE,69,0.0,6.0,68,0.00,,---,0.00,VWS V14.01,2013-09-16 21:25:00,
2013-09-16 17:30:00,63.6,52.9,30.06,West,263,1.0,5.0,68,0.00,,---,0.00,VWS V14.01,2013-09-16 21:30:00,
2013-09-16 17:35:00,63.4,53.1,30.06,SSW,200,4.0,5.0,69,0.00,,---,0.00,VWS V14.01,2013-09-16 21:35:00,
2013-09-16 17:40:00,63.1,52.8,30.07,SSW,208,0.0,6.0,69,0.00,,---,0.00,VWS V14.01,2013-09-16 21:40:00,
2013-09-16 17:45:00,62.9,52.2,30.07,NW,324,2.0,4.0,68,0.00,,---,0.00,VWS V14.01,2013-09-16 21:45:00,
2013-09-16 17:50:00,62.6,51.9,30.07,West,269,1.0,5.0,68,0.00,,---,0.00,VWS V14.01,2013-09-16 21:50:00,
2013-09-16 17:55:00,62.3,52.0,30.07,WSW,258,0.0,3.0,69,0.00,,---,0.00,VWS V14.01,2013-09-16 21:55:00,
2013-09-16 18:00:00,62.1,51.8,30.07,NW,305,2.0,9.0,69,0.00,,---,0.00,VWS V14.01,2013-09-16 22:00:00,
2013-09-16 18:05:00,61.9,51.6,30.08,NNE,30,1.0,5.0,69,0.00,,---,0.00,VWS V14.01,2013-09-16 22:05:00,
2013-09-16 18:10:00,61.7,51.0,30.08,ENE,57,1.0,7.0,68,0.00,,---,0.00,VWS V14.01,2013-09-16 22:10:00,
2013-09-16 18:15:00,61.5,50.8,30.08,NNW,347,4.0,7.0,68,0.00,,---,0.00,VWS V14.01,2013-09-16 22:15:00,
2013-09-16 18:20:00,61.3,50.7,30.08,ENE,57,1.0,9.0,68,0.00,,---,0.00,VWS V14.01,2013-09-16 22:20:00,
2013-09-16 18:25:00,61.0,50.8,30.08,North,11,0.0,6.0,69,0.00,,---,0.00,VWS V14.01,2013-09-16 22:25:00,
2013-09-16 18:30:00,60.8,50.6,30.09,North,11,1.0,2.0,69,0.00,,---,0.00,VWS V14.01,2013-09-16 22:30:00,
2013-09-16 18:35:00,60.5,50.3,30.09,SW,226,1.0,5.0,69,0.00,,---,0.00,VWS V14.01,2013-09-16 22:35:00,
2013-09-16 18:40:00,60.2,50.0,30.09,West,259,0.0,4.0,69,0.00,,---,0.00,VWS V14.01,2013-09-16 22:40:00,
2013-09-16 18:45:00,59.9,49.3,30.10,WNW,289,3.0,6.0,68,0.00,,---,0.00,VWS V14.01,2013-09-16 22:45:00,
2013-09-16 18:50:00,59.5,47.7,30.10,NNE,25,0.0,6.0,65,0.00,,---,0.00,VWS V14.01,2013-09-16 22:50:00,
2013-09-16 18:55:00,59.2,47.0,30.10,North,360,0.0,3.0,64,0.00,,---,0.00,VWS V14.01,2013-09-16 22:55:00,
2013-09-16 19:00:00,58.9,46.8,30.11,West,271,2.0,5.0,64,0.00,,---,0.00,VWS V14.01,2013-09-16 23:00:00,
2013-09-16 19:05:00,58.6,46.9,30.11,North,1,2.0,7.0,65,0.00,,---,0.00,VWS V14.01,2013-09-16 23:05:00,
2013-09-16 19:10:00,58.4,47.1,30.11,NW,321,0.0,6.0,66,0.00,,---,0.00,VWS V14.01,2013-09-16 23:10:00,
2013-09-16 19:15:00,58.1,46.8,30.12,ESE,117,0.0,9.0,66,0.00,,---,0.00,VWS V14.01,2013-09-16 23:15:00,
2013-09-16 19:20:00,57.8,46.9,30.12,North,8,0.0,4.0,67,0.00,,---,0.00,VWS V14.01,2013-09-16 23:20:00,
2013-09-16 19:25:00,57.5,46.6,30.12,WNW,287,1.0,5.0,67,0.00,,---,0.00,VWS V14.01,2013-09-16 23:25:00,
2013-09-16 19:30:00,57.4,46.2,30.12,NE,44,1.0,7.0,66,0.00,,---,0.00,VWS V14.01,2013-09-16 23:30:00,
2013-09-16 19:35:00,57.2,46.4,30.13,ENE,67,0.0,4.0,67,0.00,,---,0.00,VWS V14.01,2013-09-16 23:35:00,
2013-09-16 19:40:00,56.9,46.1,30.13,NNE,17,0.0,4.0,67,0.00,,---,0.00,VWS V14.01,2013-09-16 23:40:00,
2013-09-16 19:45:00,56.7,45.9,30.13,ENE,61,0.0,5.0,67,0.00,,---,0.00,VWS V14.01,2013-09-16 23:45:00,
2013-09-16 19:50:00,56.4,45.6,30.14,ENE,58,0.0,2.0,67,0.00,,---,0.00,VWS V14.01,2013-09-16 23:50:00,
2013-09-16 19:55:00,56.0,45.2,30.14,East,82,0.0,4.0,67,0.00,,---,0.00,VWS V14.01,2013-09-16 23:55:00,
2013-09-16 20:00:00,55.8,45.4,30.15,NNE,26,0.0,5.0,68,0.00,,---,0.00,VWS V14.01,2013-09-17 00:00:00,
2013-09-16 20:05:00,55.5,44.7,30.15,NNW,329,1.0,4.0,67,0.00,,---,0.00,VWS V14.01,2013-09-17 00:05:00,
2013-09-16 20:10:00,55.3,44.2,30.15,NE,35,0.0,7.0,66,0.00,,---,0.00,VWS V14.01,2013-09-17 00:10:00,
2013-09-16 20:15:00,55.1,43.6,30.16,SW,214,0.0,5.0,65,0.00,,---,0.00,VWS V14.01,2013-09-17 00:15:00,
2013-09-16 20:20:00,55.0,43.1,30.16,WNW,290,2.0,6.0,64,0.00,,---,0.00,VWS V14.01,2013-09-17 00:20:00,
2013-09-16 20:25:00,54.8,42.9,30.16,North,11,2.0,7.0,64,0.00,,---,0.00,VWS V14.01,2013-09-17 00:25:00,
2013-09-16 20:30:00,54.6,42.7,30.16,North,3,0.0,6.0,64,0.00,,---,0.00,VWS V14.01,2013-09-17 00:30:00,
2013-09-16 20:35:00,54.4,42.5,30.17,North,352,1.0,6.0,64,0.00,,---,0.00,VWS V14.01,2013-09-17 00:35:00,
2013-09-16 20:40:00,54.1,42.2,30.17,NNE,19,0.0,6.0,64,0.00,,---,0.00,VWS V14.01,2013-09-17 00:40:00,
2013-09-16 20:45:00,53.9,42.0,30.17,West,280,2.0,10.0,64,0.00,,---,0.00,VWS V14.01,2013-09-17 00:45:00,
2013-09-16 20:50:00,53.7,42.2,30.17,WSW,241,2.0,6.0,65,0.00,,---,0.00,VWS V14.01,2013-09-17 00:50:00,
2013-09-16 20:55:00,53.5,42.0,30.17,SW,230,0.0,3.0,65,0.00,,---,0.00,VWS V14.01,2013-09-17 00:55:00,
2013-09-16 21:00:00,53.3,42.2,30.17,ESE,102,1.0,4.0,66,0.00,,---,0.00,VWS V14.01,2013-09-17 01:00:00,
2013-09-16 21:05:00,53.1,42.1,30.18,NNW,338,0.0,4.0,66,0.00,,---,0.00,VWS V14.01,2013-09-17 01:05:00,
2013-09-16 21:10:00,52.9,41.9,30.18,NNE,30,0.0,4.0,66,0.00,,---,0.00,VWS V14.01,2013-09-17 01:10:00,
2013-09-16 21:15:00,52.7,42.5,30.19,WNW,303,1.0,3.0,68,0.00,,---,0.00,VWS V14.01,2013-09-17 01:15:00,
2013-09-16 21:20:00,52.4,42.2,30.19,South,179,1.0,3.0,68,0.00,,---,0.00,VWS V14.01,2013-09-17 01:20:00,
2013-09-16 21:25:00,52.3,42.1,30.19,NNE,19,2.0,7.0,68,0.00,,---,0.00,VWS V14.01,2013-09-17 01:25:00,
2013-09-16 21:30:00,52.2,42.0,30.20,NNW,345,0.0,5.0,68,0.00,,---,0.00,VWS V14.01,2013-09-17 01:30:00,
2013-09-16 21:35:00,52.0,41.8,30.20,SSW,192,4.0,4.0,68,0.00,,---,0.00,VWS V14.01,2013-09-17 01:35:00,
2013-09-16 21:40:00,51.9,41.3,30.20,NW,323,0.0,5.0,67,0.00,,---,0.00,VWS V14.01,2013-09-17 01:40:00,
2013-09-16 21:45:00,51.9,40.9,30.20,ENE,57,0.0,7.0,66,0.00,,---,0.00,VWS V14.01,2013-09-17 01:45:00,
2013-09-16 21:50:00,51.9,40.5,30.21,SE,146,1.0,7.0,65,0.00,,---,0.00,VWS V14.01,2013-09-17 01:50:00,
2013-09-16 21:55:00,51.8,40.8,30.21,NNW,338,1.0,6.0,66,0.00,,---,0.00,VWS V14.01,2013-09-17 01:55:00,
2013-09-16 22:00:00,51.6,40.2,30.21,SW,215,0.0,6.0,65,0.00,,---,0.00,VWS V14.01,2013-09-17 02:00:00,
2013-09-16 22:05:00,51.4,40.8,30.22,ESE,103,0.0,6.0,67,0.00,,---,0.00,VWS V14.01,2013-09-17 02:05:00,
2013-09-16 22:10:00,51.1,40.5,30.22,NNW,329,0.0,4.0,67,0.00,,---,0.00,VWS V14.01,2013-09-17 02:10:00,
2013-09-16 22:15:00,50.8,40.2,30.22,NNW,338,1.0,7.0,67,0.00,,---,0.00,VWS V14.01,2013-09-17 02:15:00,
2013-09-16 22:24:00,50.8,40.2,30.22,NNW,338,1.0,7.0,67,0.00,,---,0.00,VWS V14.01,2013-09-17 02:24:00,
2013-09-16 22:25:00,50.5,40.3,30.23,SSE,154,1.0,4.0,68,0.00,,---,0.00,VWS V14.01,2013-09-17 02:25:00,
2013-09-16 22:30:00,50.3,40.2,30.23,NE,54,0.0,5.0,68,0.00,,---,0.00,VWS V14.01,2013-09-17 02:30:00,
2013-09-16 22:35:00,50.2,40.1,30.23,NNW,345,1.0,9.0,68,0.00,,---,0.00,VWS V14.01,2013-09-17 02:35:00,
2013-09-16 22:40:00,50.0,39.9,30.23,ESE,122,0.0,10.0,68,0.00,,---,0.00,VWS V14.01,2013-09-17 02:40:00,
2013-09-16 22:45:00,49.9,39.8,30.23,NNW,345,0.0,5.0,68,0.00,,---,0.00,VWS V14.01,2013-09-17 02:45:00,
2013-09-16 22:50:00,49.7,39.6,30.23,NE,46,0.0,5.0,68,0.00,,---,0.00,VWS V14.01,2013-09-17 02:50:00,
2013-09-16 22:55:00,49.5,39.8,30.24,NE,51,0.0,5.0,69,0.00,,---,0.00,VWS V14.01,2013-09-17 02:55:00,
2013-09-16 23:00:00,49.4,39.3,30.24,ENE,61,0.0,5.0,68,0.00,,---,0.00,VWS V14.01,2013-09-17 03:00:00,
2013-09-16 23:05:00,49.2,39.8,30.24,NNW,340,0.0,3.0,70,0.00,,---,0.00,VWS V14.01,2013-09-17 03:05:00,
2013-09-16 23:10:00,48.9,39.2,30.24,SW,219,0.0,5.0,69,0.00,,---,0.00,VWS V14.01,2013-09-17 03:10:00,
2013-09-16 23:15:00,48.8,39.5,30.25,East,85,1.0,3.0,70,0.00,,---,0.00,VWS V14.01,2013-09-17 03:15:00,
2013-09-16 23:20:00,48.6,39.3,30.25,North,6,0.0,3.0,70,0.00,,---,0.00,VWS V14.01,2013-09-17 03:20:00,
2013-09-16 23:25:00,48.5,39.2,30.25,West,268,0.0,5.0,70,0.00,,---,0.00,VWS V14.01,2013-09-17 03:25:00,
2013-09-16 23:30:00,48.3,39.0,30.25,North,350,0.0,5.0,70,0.00,,---,0.00,VWS V14.01,2013-09-17 03:30:00,
2013-09-16 23:35:00,48.2,39.2,30.25,NE,40,0.0,4.0,71,0.00,,---,0.00,VWS V14.01,2013-09-17 03:35:00,
2013-09-16 23:40:00,48.1,39.2,30.25,West,280,0.0,6.0,71,0.00,,---,0.00,VWS V14.01,2013-09-17 03:40:00,
2013-09-16 23:45:00,48.0,39.1,30.25,ESE,108,0.0,3.0,71,0.00,,---,0.00,VWS V14.01,2013-09-17 03:45:00,
2013-09-16 23:50:00,47.8,38.9,30.26,NNE,15,0.0,4.0,71,0.00,,---,0.00,VWS V14.01,2013-09-17 03:50:00,
2013-09-16 23:55:00,47.7,39.1,30.26,NW,319,0.0,3.0,72,0.00,,---,0.00,VWS V14.01,2013-09-17 03:55:00,